N0KTA-2 Weather Reports


Display with metric or nautical units.
time (UTC)temp
F
wind
direction
speed
MPH
gust
MPH
rain 1hr
in
rain 24hr
in
rain mn
in
humidity
%
barometer
mb
20260510105556 61 33 7.0 14.0 0.00 0.00 0.00 61 1010.7
20260510104555 61 31 6.0 8.0 0.00 0.00 0.00 61 1010.7
20260510103556 61 23 6.0 7.0 0.00 0.00 0.00 60 1010.7
20260510102555 61 22 8.0 14.0 0.00 0.00 0.00 61 1010.5
20260510101556 61 35 6.0 14.0 0.00 0.00 0.00 61 1010.3
20260510100555 61 27 6.0 13.0 0.00 0.00 0.00 61 1010.1
20260510095556 61 23 5.0 7.0 0.00 0.00 0.00 61 1010.0
20260510094555 62 32 5.0 6.0 0.00 0.00 0.00 61 1009.9
20260510093556 62 34 6.0 9.0 0.00 0.00 0.00 61 1009.6
20260510092555 62 21 3.0 7.0 0.00 0.00 0.00 62 1009.5
20260510091556 62 48 3.0 7.0 0.00 0.00 0.00 61 1009.6
20260510090555 63 29 5.0 12.0 0.00 0.00 0.00 61 1009.4
20260510085556 63 33 5.0 10.0 0.00 0.00 0.00 62 1009.1
20260510084554 63 20 6.0 12.0 0.00 0.00 0.00 62 1009.0
20260510083555 63 27 3.0 8.0 0.00 0.00 0.00 62 1009.1
20260510082554 63 28 5.0 9.0 0.00 0.00 0.00 62 1009.0
20260510081555 63 22 5.0 5.0 0.00 0.00 0.00 61 1009.0
20260510080554 64 18 2.0 5.0 0.00 0.00 0.00 61 1008.8
20260510075555 64 16 1.0 3.0 0.00 0.00 0.00 61 1008.5
20260510074556 64 37 2.0 3.0 0.00 0.00 0.00 61 1008.5
20260510073555 64 10 1.0 3.0 0.00 0.00 0.00 60 1008.7
20260510072555 64 37 2.0 3.0 0.00 0.00 0.00 60 1008.6
20260510071555 65 30 2.0 3.0 0.00 0.00 0.00 59 1008.5
20260510070556 66 42 2.0 3.0 0.00 0.00 0.00 58 1008.5
20260510065555 66 46 2.0 3.0 0.00 0.00 0.00 56 1008.4
20260510064554 67 26 3.0 5.0 0.00 0.00 0.00 55 1008.3
20260510063555 67 21 5.0 7.0 0.00 0.00 0.00 54 1008.3
20260510062555 67 17 1.0 2.0 0.00 0.00 0.00 53 1008.2
20260510061556 67 15 1.0 1.0 0.00 0.00 0.00 52 1007.8
20260510060555 67 22 2.0 3.0 0.00 0.00 0.00 53 1007.8
20260510055556 68 32 1.0 1.0 0.00 0.00 0.00 53 1007.6
20260510054554 68 29 2.0 3.0 0.00 0.00 0.00 53 1007.5
20260510053555 67 21 2.0 3.0 0.00 0.00 0.00 53 1007.2
20260510052555 67 21 2.0 2.0 0.00 0.00 0.00 54 1006.9
20260510051556 67 31 0.0 0.0 0.00 0.00 0.00 54 1006.7
20260510050555 68 31 0.0 0.0 0.00 0.00 0.00 54 1006.7
20260510045556 68 31 0.0 0.0 0.00 0.00 0.00 53 1006.8
20260510044555 68 46 0.0 0.0 0.00 0.00 0.00 52 1006.8
20260510043556 69 88 0.0 1.0 0.00 0.00 0.00 52 1006.7
20260510042555 69 88 0.0 1.0 0.00 0.00 0.00 52 1006.9
20260510041556 69 95 0.0 1.0 0.00 0.00 0.00 51 1006.9
20260510040555 70 101 0.0 0.0 0.00 0.00 0.00 50 1007.0
20260510035556 70 89 0.0 1.0 0.00 0.00 0.00 50 1006.9
20260510034555 71 89 0.0 0.0 0.00 0.00 0.00 49 1006.9
20260510033556 71 89 0.0 0.0 0.00 0.00 0.00 48 1006.7
20260510032555 72 161 0.0 0.0 0.00 0.00 0.00 48 1006.6
20260510031556 72 226 0.0 1.0 0.00 0.00 0.00 47 1006.3
20260510030555 73 217 1.0 3.0 0.00 0.00 0.00 48 1006.2
20260510025556 73 191 2.0 5.0 0.00 0.00 0.00 47 1006.6
20260510024555 73 275 0.0 1.0 0.00 0.00 0.00 48 1007.1
20260510023555 73 285 0.0 2.0 0.00 0.00 0.00 46 1007.0
20260510022555 74 296 0.0 1.0 0.00 0.00 0.00 46 1006.9
20260510021555 75 243 0.0 2.0 0.00 0.00 0.00 46 1006.9
20260510020554 75 273 1.0 2.0 0.00 0.00 0.00 40 1006.9
20260510015555 75 259 0.0 0.0 0.00 0.00 0.00 41 1007.2
20260510014556 76 267 0.0 0.0 0.00 0.00 0.00 39 1006.8
20260510013555 77 236 0.0 0.0 0.00 0.00 0.00 36 1006.3
20260510012555 78 188 2.0 3.0 0.00 0.00 0.00 35 1005.6
20260510011556 78 217 2.0 3.0 0.00 0.00 0.00 34 1005.0
20260510010555 79 157 1.0 3.0 0.00 0.00 0.00 33 1004.4
20260510005556 79 188 2.0 3.0 0.00 0.00 0.00 33 1004.4
20260510004555 80 188 2.0 3.0 0.00 0.00 0.00 32 1004.2
20260510003556 81 186 3.0 3.0 0.00 0.00 0.00 32 1003.8
20260510002555 81 187 3.0 3.0 0.00 0.00 0.00 31 1003.6
20260510001556 82 186 2.0 2.0 0.00 0.00 0.00 29 1003.6
20260510000555 83 181 2.0 3.0 0.00 0.00 0.00 28 1003.5
20260509235554 84 146 3.0 3.0 0.00 0.00 0.00 28 1003.7
20260509234555 84 203 2.0 3.0 0.00 0.00 0.00 26 1003.8
20260509233556 85 201 2.0 3.0 0.00 0.00 0.00 26 1003.9
20260509232555 85 174 5.0 5.0 0.00 0.00 0.00 24 1004.1
20260509231556 85 213 2.0 3.0 0.00 0.00 0.00 25 1004.1
20260509230554 85 213 0.0 1.0 0.00 0.00 0.00 26 1003.8
20260509225554 85 192 3.0 8.0 0.00 0.00 0.00 24 1003.7
20260509224554 85 288 1.0 1.0 0.00 0.00 0.00 24 1003.6
20260509223555 86 137 2.0 3.0 0.00 0.00 0.00 23 1003.6
20260509222554 86 196 1.0 3.0 0.00 0.00 0.00 25 1003.6
20260509221555 86 200 5.0 6.0 0.00 0.00 0.00 23 1003.6
20260509220556 86 195 6.0 9.0 0.00 0.00 0.00 26 1003.5
20260509215555 86 197 2.0 3.0 0.00 0.00 0.00 25 1003.5
20260509214556 86 215 2.0 3.0 0.00 0.00 0.00 24 1003.6
20260509213555 86 250 2.0 2.0 0.00 0.00 0.00 23 1003.6
20260509212556 86 176 1.0 1.0 0.00 0.00 0.00 23 1003.8
20260509211555 86 186 5.0 6.0 0.00 0.00 0.00 23 1004.0
20260509210556 86 181 1.0 5.0 0.00 0.00 0.00 24 1004.1
20260509205555 86 220 3.0 3.0 0.00 0.00 0.00 23 1004.1
20260509204556 86 181 5.0 5.0 0.00 0.00 0.00 23 1004.3
20260509203556 86 217 1.0 3.0 0.00 0.00 0.00 24 1004.5
20260509202555 85 145 2.0 5.0 0.00 0.00 0.00 25 1004.7
20260509201556 85 242 1.0 3.0 0.00 0.00 0.00 26 1004.7
20260509200554 85 190 3.0 9.0 0.00 0.00 0.00 31 1004.8
20260509195555 85 181 3.0 6.0 0.00 0.00 0.00 24 1005.0
20260509194555 85 154 0.0 2.0 0.00 0.00 0.00 25 1005.0
20260509193555 85 212 2.0 3.0 0.00 0.00 0.00 24 1005.2
20260509192555 85 207 5.0 7.0 0.00 0.00 0.00 26 1005.2
20260509191555 85 294 1.0 1.0 0.00 0.00 0.00 26 1005.2
20260509190554 85 193 2.0 3.0 0.00 0.00 0.00 24 1005.2
20260509185556 85 186 3.0 7.0 0.00 0.00 0.00 27 1005.4
20260509184556 85 244 0.0 2.0 0.00 0.00 0.00 25 1005.5
20260509183555 85 229 0.0 1.0 0.00 0.00 0.00 25 1005.6
20260509182554 84 222 2.0 3.0 0.00 0.00 0.00 27 1005.7
20260509181555 83 287 1.0 1.0 0.00 0.00 0.00 27 1005.9
20260509180555 83 198 1.0 6.0 0.00 0.00 0.00 28 1006.1
20260509175555 82 281 1.0 1.0 0.00 0.00 0.00 27 1006.3
20260509174555 82 309 1.0 3.0 0.00 0.00 0.00 27 1006.4
20260509173556 82 294 2.0 3.0 0.00 0.00 0.00 28 1006.6
20260509172554 82 267 1.0 2.0 0.00 0.00 0.00 29 1006.7
20260509171555 80 278 0.0 1.0 0.00 0.00 0.00 29 1006.9
20260509170554 81 272 1.0 3.0 0.00 0.00 0.00 30 1007.0
20260509165555 80 263 1.0 3.0 0.00 0.00 0.00 30 1006.9
20260509164556 81 283 1.0 2.0 0.00 0.00 0.00 29 1006.9
20260509163555 80 284 2.0 2.0 0.00 0.00 0.00 30 1006.9
20260509162554 79 287 0.0 0.0 0.00 0.00 0.00 33 1007.2
20260509161555 79 285 1.0 1.0 0.00 0.00 0.00 33 1007.1
20260509160554 78 274 1.0 2.0 0.00 0.00 0.00 36 1007.1
20260509155555 78 288 0.0 1.0 0.00 0.00 0.00 37 1006.9
20260509154554 77 284 1.0 2.0 0.00 0.00 0.00 39 1007.0
20260509153555 76 281 1.0 1.0 0.00 0.00 0.00 41 1006.9
20260509152554 74 280 1.0 1.0 0.00 0.00 0.00 43 1007.0
20260509151555 73 274 0.0 1.0 0.00 0.00 0.00 50 1007.0
20260509150556 71 286 0.0 1.0 0.00 0.00 0.00 53 1007.2
20260509145554 70 242 0.0 2.0 0.00 0.00 0.00 57 1007.0
20260509144555 69 277 0.0 1.0 0.00 0.00 0.00 61 1007.0
20260509143555 68 262 0.0 1.0 0.00 0.00 0.00 63 1007.2
20260509142556 66 245 0.0 2.0 0.00 0.00 0.00 67 1007.3
20260509141556 65 240 0.0 1.0 0.00 0.00 0.00 69 1007.3
20260509140555 63 268 1.0 1.0 0.00 0.00 0.00 70 1007.3
20260509135554 62 261 1.0 1.0 0.00 0.00 0.00 71 1007.1
20260509134554 61 262 0.0 1.0 0.00 0.00 0.00 73 1007.1
20260509134323 61 262 0.0 0.0 0.00 0.00 0.00 72 1007.1
20260509133555 60 264 0.0 1.0 0.00 0.00 0.00 74 1007.2
20260509132555 59 283 0.0 1.0 0.00 0.00 0.00 75 1007.4
20260509131555 59 278 1.0 1.0 0.00 0.00 0.00 75 1007.3
20260509130555 57 252 0.0 0.0 0.00 0.00 0.00 75 1007.3
20260509125554 56 252 0.0 1.0 0.00 0.00 0.00 76 1007.0
20260509125324 56 252 0.0 1.0 0.00 0.00 0.00 77 1007.0
20260509124556 56 252 0.0 0.0 0.00 0.00 0.00 77 1007.0
20260509123555 54 252 0.0 0.0 0.00 0.00 0.00 79 1006.8
20260509122555 53 252 0.0 1.0 0.00 0.00 0.00 83 1006.8
20260509121555 51 252 0.0 0.0 0.00 0.00 0.00 86 1006.9
20260509120554 50 252 0.0 0.0 0.00 0.00 0.00 85 1006.8
20260509120324 50 252 0.0 0.0 0.00 0.00 0.00 85 1006.8
20260509115556 50 252 0.0 0.0 0.00 0.00 0.00 84 1006.8
20260509114555 50 252 0.0 0.0 0.00 0.00 0.00 84 1006.7
20260509113555 51 252 0.0 0.0 0.00 0.00 0.00 82 1006.3
20260509112555 51 252 0.0 0.0 0.00 0.00 0.00 83 1006.3
20260509111554 51 252 0.0 0.0 0.00 0.00 0.00 82 1006.3
20260509110555 51 252 0.0 0.0 0.00 0.00 0.00 81 1006.1